Theta_e
327 324 324 329 329 331 336 338 338 338 338 335 336 337 342 342 342 342 339 336 333 332 333 333 332 332 330 326 327 321 310 311 316 320 321 321 322 321 321 320 321 319 319 317
324 324 325 327 332 333 335 336 334 335 336 332 335 340 341 341 341 342 340 339 337 333 333 333 333 332 331 328 329 328 313 310 311 314 315 320 321 322 321 321 320 318 319 318
325 326 328 329 335 337 331 331 336 336 337 336 336 336 344 341 340 340 340 341 340 337 335 334 333 333 332 329 328 330 321 311 310 313 317 322 322 322 322 321 320 320 320 319
325 326 328 332 333 331 333 332 333 337 335 338 335 335 341 342 342 339 339 340 340 340 339 336 335 334 334 332 332 331 326 314 311 310 314 322 323 322 322 322 320 320 321 319
326 326 326 329 333 333 333 332 335 337 336 335 338 338 341 340 340 340 340 338 340 341 341 337 337 336 335 334 333 331 328 320 313 311 311 315 319 321 321 319 321 319 320 319
325 327 328 329 332 333 334 337 332 334 335 340 336 337 341 338 336 336 338 339 339 339 339 338 338 336 335 335 334 333 329 324 317 313 312 312 312 315 318 320 321 319 319 320
325 327 331 333 332 330 330 329 331 332 336 342 336 340 336 336 335 336 336 336 339 339 339 338 339 336 336 335 335 332 327 326 321 317 314 314 313 318 320 322 322 321 319 319
325 326 332 333 332 332 332 330 331 337 337 334 337 338 335 333 334 334 334 334 338 339 339 339 340 339 336 336 335 329 327 327 323 319 317 316 317 315 317 319 321 318 319 319
325 326 331 333 332 331 333 334 331 332 331 330 332 334 334 334 334 334 334 334 333 335 339 339 340 339 336 336 334 332 328 327 324 321 320 319 319 318 318 318 319 319 319 319
325 328 333 333 334 333 331 332 332 334 336 335 335 334 335 334 336 334 331 334 335 336 336 337 337 338 336 336 335 334 331 328 324 322 322 321 321 320 320 319 320 320 320 320
325 327 328 332 332 332 333 335 335 333 332 336 338 332 330 333 332 334 332 334 336 335 336 336 333 336 336 335 334 333 331 329 325 322 323 323 322 321 321 321 321 321 320 321
331 327 333 333 330 331 332 333 332 334 337 333 332 333 332 331 333 332 333 335 335 335 337 337 333 334 336 334 334 332 332 329 325 323 324 323 322 322 321 321 322 322 322 321
332 333 332 332 329 331 333 331 334 331 330 334 334 332 335 334 333 332 332 331 333 334 335 336 335 334 336 334 333 332 332 329 327 324 323 322 321 322 321 321 322 321 321 320
333 330 329 331 330 330 331 332 333 330 332 333 333 331 336 335 333 332 333 331 331 331 333 331 335 336 336 334 333 333 332 329 328 323 322 322 321 321 321 322 322 321 320 318
327 330 334 332 332 333 334 332 332 334 334 334 332 332 333 334 331 333 333 332 333 332 331 332 332 331 336 335 334 333 331 328 329 323 322 321 321 321 321 322 322 321 320 318
330 328 335 335 337 336 335 332 333 332 333 334 335 337 335 335 334 333 333 331 331 333 337 337 336 335 333 334 333 332 329 329 329 324 325 323 322 321 322 322 321 321 321 320
337 334 336 336 336 333 331 332 335 337 336 333 338 336 335 335 334 333 331 331 333 336 336 335 334 335 334 335 333 332 330 330 329 328 323 321 320 320 320 321 321 321 321 321
338 339 333 334 333 335 330 334 336 338 339 336 336 334 334 332 331 330 331 331 335 336 336 335 334 334 335 334 332 332 331 329 327 324 322 322 322 321 320 320 320 321 321 321
330 331 332 332 334 334 335 333 333 335 335 335 336 335 332 332 332 332 330 331 329 330 336 335 335 333 332 332 331 330 329 327 324 323 322 321 321 320 320 320 321 321 322 324
332 330 329 335 336 337 333 336 335 332 333 334 333 335 331 332 332 331 332 332 333 334 334 334 334 333 332 331 331 328 326 324 323 323 323 322 322 323 324 324 325 326 325 320
335 332 333 333 335 334 335 335 333 335 335 336 333 333 337 334 332 333 333 333 331 332 334 330 326 327 329 328 324 326 326 326 327 326 324 326 326 326 328 327 322 316 316 316
335 335 337 335 336 337 335 335 336 336 337 335 334 333 336 334 333 334 334 333 331 332 332 329 329 325 324 324 326 324 325 324 327 329 328 327 327 327 323 318 315 315 314 314
331 333 334 333 332 335 337 336 335 334 334 330 330 330 332 333 334 334 334 333 331 330 330 331 330 328 326 326 326 325 327 327 328 328 327 323 316 311 312 314 314 313 312 313
332 335 335 330 332 334 336 334 331 331 331 331 332 331 333 334 332 332 335 332 330 330 332 331 330 328 327 327 327 328 328 326 323 319 310 309 310 312 313 313 312 311 312 315
332 331 332 333 332 331 334 333 334 333 329 329 333 336 332 333 331 332 335 332 330 331 331 330 329 328 328 328 327 323 319 312 306 308 308 311 312 312 312 311 311 311 312 314
332 331 333 332 336 338 333 331 330 331 328 331 336 333 335 329 331 334 333 331 331 330 330 329 330 329 325 320 311 307 306 304 307 309 310 312 311 310 310 312 312 311 312 312
Wind_Speed
7 4 8 12 11 6 7 2 4 8 6 3 6 8 16 27 25 21 28 33 33 35 28 23 18 14 9 5 0 5 3 3 6 8 9 7 6 2 6 7 8 14 12 15
6 6 14 13 9 8 6 6 7 7 6 6 6 8 13 23 29 32 30 32 34 33 29 27 23 20 14 7 3 1 2 1 4 6 10 9 10 6 5 5 9 10 11 14
4 11 23 3 4 4 6 8 2 4 3 4 2 5 4 1 11 18 25 38 36 36 35 33 29 26 18 12 5 3 2 1 2 5 9 10 10 9 6 4 9 8 10 12
6 5 11 6 2 4 2 2 6 4 2 2 3 2 4 6 9 15 23 29 32 35 38 39 33 30 23 13 8 7 4 2 2 4 6 10 11 10 9 6 6 8 8 8
11 8 9 7 5 4 5 5 3 4 5 3 5 4 5 2 12 14 17 26 34 33 38 42 37 32 22 16 11 8 7 3 2 2 6 8 11 10 8 4 6 6 5 6
9 7 4 5 4 4 6 2 9 5 3 3 3 4 4 5 9 5 19 30 36 35 36 41 37 32 24 17 16 13 10 6 2 1 3 4 5 7 10 8 5 7 4 6
7 5 9 3 6 5 6 7 4 5 5 4 5 1 7 5 11 19 19 12 36 34 39 41 38 37 30 25 19 15 13 9 4 3 1 1 3 5 8 8 6 8 12 9
1 12 1 4 3 3 6 6 4 2 3 3 5 3 4 6 11 10 9 9 18 34 38 42 40 39 35 26 20 15 15 11 6 4 5 4 4 6 8 6 8 9 9 12
4 7 5 4 5 3 3 4 3 5 4 2 3 5 1 4 7 9 10 22 14 11 23 35 40 40 38 27 23 19 16 12 9 5 6 5 4 5 7 5 6 6 7 9
7 3 4 4 10 13 6 3 3 4 2 4 5 4 4 5 6 4 18 16 21 10 14 18 20 31 35 31 25 22 18 13 7 6 6 6 6 6 9 10 8 10 9 10
6 6 9 3 0 7 1 2 5 4 5 4 3 6 6 5 8 4 11 16 14 8 14 25 19 30 32 36 33 23 20 13 9 6 7 8 7 9 9 12 11 11 12 12
2 5 3 4 7 4 4 6 6 5 4 2 4 6 6 5 8 12 7 15 12 5 17 22 22 39 30 39 36 25 19 12 7 6 10 10 10 9 10 13 13 13 15 15
1 3 3 6 7 4 3 3 4 5 3 5 5 6 1 3 2 3 4 12 10 8 16 13 14 35 40 37 31 25 19 11 7 9 12 12 11 10 11 14 15 15 16 17
5 3 6 6 6 3 5 11 8 5 4 4 6 6 6 3 1 4 4 4 4 4 6 7 8 18 30 26 24 23 22 10 9 12 12 12 10 11 14 14 15 15 15 15
5 2 1 4 5 2 6 8 6 6 5 7 5 6 3 4 7 9 4 2 3 3 6 9 13 11 21 16 21 22 21 13 10 9 9 10 10 12 13 14 16 16 16 15
3 2 1 4 4 6 3 6 13 8 4 2 8 4 4 6 8 9 5 4 4 7 11 12 17 15 16 17 22 20 19 13 8 9 9 11 12 11 14 16 18 19 20 21
2 3 3 4 4 5 5 5 2 3 6 3 5 6 7 3 13 11 6 4 2 4 8 8 5 7 16 21 23 18 14 9 7 7 10 10 8 11 13 15 19 22 24 27
6 4 4 3 4 3 6 4 2 9 5 4 5 8 15 16 13 6 6 8 8 7 9 10 10 11 18 19 11 8 6 4 5 9 11 12 12 13 14 17 20 23 25 27
5 4 2 3 3 4 5 4 4 4 3 1 5 6 9 12 9 7 10 9 8 9 9 10 12 14 12 9 8 6 1 4 8 11 12 12 13 16 18 21 22 22 23 27
5 5 4 2 3 4 4 4 4 2 4 12 8 6 6 19 1 6 15 13 10 9 9 11 13 14 13 12 8 3 1 3 6 10 13 12 13 15 19 20 20 21 22 21
3 3 4 2 3 6 4 3 1 5 6 19 17 14 13 13 14 11 17 13 9 9 11 10 10 11 9 7 6 4 2 3 6 6 9 11 15 15 16 17 16 17 17 18
0 1 2 2 2 2 13 6 5 4 8 16 28 26 24 26 11 17 16 14 11 14 13 7 8 10 8 6 5 6 3 6 9 10 13 16 15 14 16 17 15 14 16 20
3 3 3 3 4 5 6 14 12 16 9 8 10 15 13 21 7 15 17 13 15 15 13 14 14 14 12 9 8 8 14 13 10 12 15 15 16 16 13 13 15 18 22 20
2 2 3 2 4 6 9 9 11 13 3 8 13 8 13 14 6 5 19 20 15 18 21 18 17 14 11 7 7 9 11 12 14 13 13 14 13 12 14 15 18 19 17 16
3 6 4 2 5 4 9 11 12 12 11 12 16 7 15 11 2 3 17 22 18 18 19 19 16 12 7 3 4 4 8 10 11 11 14 12 13 15 16 18 18 16 18 14
7 6 4 6 16 15 13 14 17 16 13 14 6 8 15 8 9 10 19 19 19 21 20 16 10 2 4 4 5 6 8 8 7 12 13 15 15 18 16 14 14 15 15 13
Wind_Direction
341 21 279 224 202 189 183 321 158 263 214 107 267 251 191 193 205 216 208 199 204 208 211 214 224 227 230 226 87 23 35 180 191 187 191 189 187 269 260 304 346 356 12 17
4 294 269 279 184 213 171 174 218 250 93 137 215 253 191 195 205 212 210 207 205 205 204 208 217 223 231 238 227 1 356 219 194 186 183 172 192 226 257 311 334 348 1 3
150 264 306 244 145 213 249 131 210 186 97 32 299 35 77 336 303 260 255 222 213 210 208 208 212 222 224 225 226 252 311 283 228 184 181 186 186 207 240 284 321 328 327 345
261 296 345 14 288 146 55 164 168 165 97 7 353 316 19 337 292 289 272 235 220 219 217 214 213 221 221 224 227 245 272 294 251 200 202 199 208 206 225 256 269 294 301 322
276 283 323 252 251 152 207 134 122 83 85 96 2 77 277 156 260 250 261 250 234 228 219 213 216 221 219 223 233 239 263 280 297 246 211 216 232 236 240 252 252 280 319 304
251 329 251 237 1 59 122 144 36 52 55 30 244 157 234 183 230 297 263 248 236 228 218 215 216 217 214 221 231 241 258 264 298 278 235 226 234 238 227 231 247 296 292 288
335 325 324 334 20 14 87 46 356 1 1 232 228 53 249 215 235 234 237 274 233 226 218 214 211 211 213 213 222 235 241 253 278 321 320 237 240 221 215 250 250 282 281 290
126 316 83 279 162 182 78 116 154 353 314 289 272 284 272 219 189 220 6 333 233 217 221 215 213 214 213 211 217 236 238 239 256 304 331 351 324 274 282 287 292 285 273 288
162 255 299 276 66 76 16 43 251 110 160 13 232 281 235 302 324 327 17 29 35 218 208 213 216 217 213 206 223 232 230 235 248 286 328 331 329 293 321 305 312 290 302 324
213 283 218 267 79 20 120 170 14 17 343 323 287 295 251 262 266 309 51 37 47 57 214 206 216 229 216 224 229 228 221 238 251 279 311 323 337 328 332 316 320 316 311 311
163 140 274 13 57 173 64 52 44 112 139 190 309 283 238 193 214 232 81 44 57 89 179 185 190 232 234 230 235 227 222 231 246 274 284 292 334 346 333 330 323 318 314 312
158 147 150 193 306 197 159 161 150 128 227 189 150 276 343 8 77 118 98 88 69 72 163 177 225 229 238 231 238 230 228 238 255 303 279 293 318 322 316 319 326 323 323 318
196 18 51 360 351 357 276 191 135 128 109 186 144 261 145 95 91 93 98 145 128 165 191 214 211 217 232 226 230 235 234 237 284 285 275 288 308 310 309 319 329 324 322 315
102 107 146 179 211 187 301 307 200 148 112 180 227 280 209 199 131 336 4 65 75 93 359 230 217 207 203 219 231 235 234 242 284 268 262 277 289 300 316 320 322 325 320 318
95 129 173 212 237 5 352 328 244 201 183 169 220 199 270 186 194 229 250 10 358 337 289 284 249 258 226 236 228 233 227 245 284 257 275 285 286 300 308 313 325 326 322 320
13 250 91 328 357 7 328 300 57 31 316 351 72 360 293 151 208 239 233 261 278 313 334 315 287 262 219 229 224 227 226 250 272 266 308 299 285 293 297 307 314 316 322 323
132 120 75 279 356 10 355 339 50 92 88 71 175 195 164 171 218 222 237 184 180 59 40 42 60 208 228 214 220 228 230 262 273 316 338 346 320 301 303 311 310 311 319 324
157 140 131 220 39 16 245 321 31 108 54 350 92 146 174 173 196 200 184 148 130 101 82 83 102 143 182 186 211 222 240 268 326 329 338 337 334 327 318 316 315 316 321 323
151 113 102 129 158 271 309 336 58 43 301 257 94 183 164 180 205 198 165 151 132 117 115 107 123 145 159 162 170 173 197 332 325 327 328 332 329 325 323 323 324 321 318 321
62 63 125 110 149 218 258 321 36 160 328 5 350 81 143 200 159 252 165 153 143 130 119 127 129 135 146 142 141 121 38 324 333 337 334 332 333 330 323 318 323 341 345 351
2 19 104 78 226 276 235 314 59 85 274 352 34 27 9 302 244 198 164 161 161 162 146 130 138 145 152 146 132 96 296 314 333 332 311 321 333 328 330 348 359 0 359 356
115 40 57 123 90 11 3 4 80 179 64 63 55 40 334 316 271 182 178 167 163 170 161 159 142 144 138 135 135 48 268 317 304 312 329 335 346 356 356 357 7 9 22 17
25 168 176 98 206 277 66 124 137 125 120 98 324 308 238 276 211 212 186 175 175 193 184 162 154 153 150 172 206 276 345 341 333 328 331 342 352 5 36 31 31 22 11 11
342 96 79 121 295 228 176 167 168 161 191 286 306 195 218 254 114 113 193 175 176 184 173 169 165 163 165 199 244 302 327 334 335 340 351 4 37 49 33 33 16 12 29 37
221 132 155 78 264 262 221 222 217 216 251 260 199 269 212 182 100 78 161 171 176 177 172 167 165 166 176 237 304 355 345 338 337 3 21 56 35 36 27 24 40 32 37 37
192 193 169 219 200 210 249 266 247 253 283 162 227 207 166 167 131 133 141 160 160 151 147 144 149 149 105 66 24 359 356 355 16 45 55 37 43 25 39 45 53 32 34 38